Mt. Pocono, PA

1:10 PM EDT on June 29, 2017 (GMT -0400)
Pocono Mountains Municipal

Weather History for KMPO - November, 2012

Change the Weather History Date:

Friday, November 2, 2012

  Actual Average Record
Temperature  
Mean Temperature 39 °F 44 °F  
Max Temperature 43 °F 52 °F 77 °F (1982)
Min Temperature 34 °F 35 °F 14 °F (1917)
Degree Days  
Heating Degree Days 26 22  
Month to date heating degree days 52 43  
Since 1 July heating degree days 714 831  
Cooling Degree Days 0 0  
Month to date cooling degree days 0 0  
Year to date cooling degree days 453 314  
Moisture  
Dew Point 31 °F    
Average Humidity 76    
Maximum Humidity 89    
Minimum Humidity 62    
Precipitation  
Precipitation 0.06 in 0.13 in 2.30 in (1932)
Month to date precipitation 0.06 0.25  
Year to date precipitation 41.88 40.55  
Sea Level Pressure  
Sea Level Pressure 29.70 in    
Wind  
Wind Speed 11 mph (NW)    
Max Wind Speed 21 mph    
Max Gust Speed 31 mph    
Visibility 9 miles    
Events Rain , Snow    
T = Trace of Precipitation, MM = Missing Value Source: NWS Daily Summary

Daily Weather History Graph

Daily Weather History Graph

Search for Another Location

Airport or City:

Trip Planner

Search our weather history database for the weather conditions in past years. The results will help you decide how hot, cold, wet, or windy it might be!

Date:

Astronomy

Nov. 02, 2012 Rise Set
Actual Time 7:34 AM EDT 5:55 PM EDT
Civil Twilight 7:05 AM EDT 6:23 PM EDT
Nautical Twilight 6:32 AM EDT 6:56 PM EDT
Astronomical Twilight 6:00 AM EDT 7:28 PM EDT
Moon 8:39 PM EDT (11/2) 10:54 AM EDT (11/2)
Length of Visible Light 11h 18m
Length of Day
10h 20m
Waning Gibbous, 87% of the Moon is Illuminated
Nov 2
Waning Gibbous
Nov 6
Last Quarter
Nov 13
New
Nov 20
First Quarter
Nov 28
Full

Hourly Weather History & Observations

Time (EDT) Temp. Windchill Dew Point Humidity Pressure Visibility Wind Dir Wind Speed Gust Speed Precip Events Conditions
10:15 AM 39.2 °F 32.0 °F 32.0 °F 75% 29.63 in 10.0 mi WNW 11.5 mph 19.6 mph N/A   Overcast
10:53 AM 39.0 °F 33.4 °F 32.0 °F 76% 29.67 in 10.0 mi WNW 8.1 mph - N/A   Overcast
11:25 AM 39.2 °F 32.5 °F 30.2 °F 70% 29.64 in 10.0 mi WNW 10.4 mph - 0.00 in Rain Light Rain
11:53 AM 39.9 °F 32.9 °F 30.9 °F 70% 29.67 in 10.0 mi WNW 11.5 mph 17.3 mph 0.00 in   Overcast
12:53 PM 42.1 °F 36.1 °F 30.0 °F 62% 29.65 in 10.0 mi WNW 10.4 mph 18.4 mph N/A   Overcast
5:28 PM 35.6 °F 27.5 °F 32.0 °F 87% 29.67 in 4.0 mi NW 11.5 mph - 0.01 in Snow Light Snow
5:34 PM 33.8 °F 25.3 °F 32.0 °F 93% 29.67 in 2.5 mi NW 11.5 mph 19.6 mph 0.01 in Snow Light Snow
5:41 PM 33.8 °F 25.8 °F 32.0 °F 93% 29.67 in 5.0 mi NW 10.4 mph - 0.02 in Snow Light Snow
5:53 PM 35.1 °F 29.3 °F 32.0 °F 89% 29.72 in 10.0 mi NW 6.9 mph 17.3 mph 0.02 in   Overcast
6:00 PM 35.6 °F 28.6 °F 32.0 °F 87% 29.68 in 10.0 mi WNW 9.2 mph - 0.00 in Snow Light Snow
6:13 PM 35.6 °F 29.9 °F 32.0 °F 87% 29.68 in 9.0 mi NW 6.9 mph 17.3 mph 0.00 in   Overcast
6:32 PM 35.6 °F 28.0 °F 32.0 °F 87% 29.69 in 9.0 mi WNW 10.4 mph - 0.00 in   Overcast
6:50 PM 35.6 °F 27.5 °F 32.0 °F 87% 29.70 in 10.0 mi NW 11.5 mph 18.4 mph 0.00 in   Overcast
6:53 PM 35.1 °F 27.4 °F 32.0 °F 89% 29.74 in 10.0 mi NW 10.4 mph 18.4 mph 0.00 in   Overcast
7:01 PM 35.6 °F 29.2 °F 32.0 °F 87% 29.70 in 10.0 mi NW 8.1 mph 16.1 mph N/A   Overcast
7:10 PM 35.6 °F 28.6 °F 32.0 °F 87% 29.71 in 9.0 mi NW 9.2 mph 17.3 mph 0.00 in   Overcast
7:23 PM 35.6 °F 27.1 °F 30.2 °F 81% 29.71 in 10.0 mi NW 12.7 mph 19.6 mph 0.00 in   Overcast
7:53 PM 35.1 °F 27.4 °F 30.9 °F 85% 29.76 in 10.0 mi NW 10.4 mph 20.7 mph 0.00 in   Overcast
8:31 PM 33.8 °F 23.9 °F 30.2 °F 87% 29.72 in 10.0 mi WNW 15.0 mph 20.7 mph 0.00 in   Mostly Cloudy
8:53 PM 34.0 °F 23.8 °F 30.0 °F 85% 29.77 in 10.0 mi NW 16.1 mph 21.9 mph 0.00 in   Overcast
9:53 PM 34.0 °F 25.0 °F 28.9 °F 82% 29.78 in 10.0 mi NW 12.7 mph 20.7 mph 0.00 in   Overcast
10:53 PM 34.0 °F 24.6 °F 28.9 °F 82% 29.78 in 10.0 mi NW 13.8 mph 28.8 mph N/A   Overcast
11:53 PM 34.0 °F 23.0 °F 28.9 °F 82% 29.78 in - NW 18.4 mph 28.8 mph N/A   Overcast